7 * 24
多渠道服务支持
STARLINK-3045是美国太空探索技术公司星链星座的一颗卫星,于2021年9月14日发射入轨,属于星链网络的组网卫星之一。它依托SpaceX的可回收猎鹰9火箭执行发射任务,旨在为全球提供低延迟、高速率的宽带互联网服务,是星链大规模商业组网进程中的组成部分,运行在近地轨道参与全球卫星互联网覆盖。
美国
(US)
| 数据来源 | 国际轨道数据 |
| 星历时间: | 2026-09-05T16:00:02+0800 9小时前 查看轨道信息 |
| 半长轴: | 6894.688km |
| 偏心率: | 0.0003177 |
| 轨道倾角: | 69.999° |
| 近地点辐角 | 266.712° |
| 升交点赤经 | 181.053° |
| 平近点角 | 107.822° |
| 近地点: | 514.36km |
| 远地点: | 518.742km |
| 周期: | 94.958分钟 |
| 每日圈数: | 15.164598 |
| 事件ID | 空间交会对象 | 最接近时刻(TCA) | 交会距离 | 交会风险概率(CRP) | 交会风险指数(CRI) | 操作 |
|---|---|---|---|---|---|---|
| CDM_260907-131704-917306-329621 |
STARLINK-3045
(49173)
OBJECT F
(63296) | 2026-09-07T 13:17:59+0000 |
2.193 km
极远距离 | 2.253457E-6 低风险 | 0.42 | |
| CDM_260907-013004-379004-917321 |
EAGLET 1
(43790)
STARLINK-3045
(49173) | 2026-09-07T 01:30:25+0000 |
2.355 km
极远距离 | 1.842558E-6 低风险 | 0.4 | |
| CDM_260906-111504-376204-917321 |
STPSAT-5
(43762)
STARLINK-3045
(49173) | 2026-09-06T 11:15:24+0000 |
2.418 km
极远距离 | 1.740291E-6 低风险 | 0.4 | |
| CDM_260901-063204-917306-858221 |
STARLINK-3045
(49173)
KUIPER-00236
(68582) | 2026-09-01T 06:32:44+0000 |
2.062 km
极远距离 | 1.093602E-6 低风险 | 0.36 | |
| CDM_260901-023404-917306-858221 |
STARLINK-3045
(49173)
KUIPER-00236
(68582) | 2026-09-01T 02:34:10+0000 |
2.772 km
极远距离 | 6.541706E-7 极低风险 | 0.31 | |
| CDM_260901-032104-917306-858221 |
STARLINK-3045
(49173)
KUIPER-00236
(68582) | 2026-09-01T 03:21:52+0000 |
2.833 km
极远距离 | 6.373389E-7 极低风险 | 0.31 |